Powrót do katalogu

STARLINK-34506

AktywnyŁącznośćVLEO
NORAD 64432·PAYLOAD·🇺🇸 United States

Wystrzelony Jun 17, 2025 z Vandenberg Space Force Base

Loading…

Następne Przeloty (najbliższe 24 godziny)

TLE

ŚwieżeSource: CelesTrak SupGP

Epoka: Sep 15, 2026, 04:02 UTC

1 64432C 25129W   26258.16854167  .00019920  00000+0  69234-3 0  2584
2 64432  70.0000 314.9190 0003433 266.9213 117.6735 15.29597707    10

Śledź STARLINK-34506 w czasie rzeczywistym z AllMySat

Download on the App Store